GFSSW_250_spd_057.txt.gz
Wind_Speed
47 47 47 46 45 42 37 34 32 31 35 59 79 92 91 92 92 91 91 108 108 112 99 106 102 102 96 82 83 85 84 82 85 78 81 85 82 85 83 75 74 75 71 72 62
42 40 39 36 36 36 34 31 29 28 28 48 64 87 91 89 89 89 95 102 113 112 108 101 107 110 104 99 93 85 80 81 93 91 83 88 88 88 88 85 76 79 73 76 70
36 33 32 32 33 33 32 29 26 25 23 36 54 76 90 88 85 91 92 95 107 113 110 94 107 109 106 100 95 101 91 86 92 101 103 100 91 93 90 85 81 82 76 74 69
31 32 33 33 32 32 31 29 25 23 23 21 42 64 83 87 84 87 90 93 100 107 113 114 102 100 99 111 102 97 85 93 90 95 101 93 89 88 93 86 83 86 85 85 81
33 34 30 30 27 30 31 30 27 24 22 21 26 51 75 84 87 85 87 91 93 104 106 113 118 108 98 97 104 103 105 99 90 86 78 80 78 81 90 82 84 94 92 86 85
30 30 29 27 23 25 26 29 29 27 25 22 22 33 62 79 85 84 85 86 91 95 104 108 120 116 113 102 99 100 106 111 113 109 105 103 92 90 72 77 81 89 91 93 90
28 28 28 28 24 22 22 24 27 29 28 26 24 24 38 70 82 85 85 86 89 92 96 103 110 120 121 123 119 106 98 97 103 95 103 106 108 95 92 97 91 91 89 89 93
23 26 28 29 25 24 22 22 23 26 30 30 29 27 28 37 68 84 86 86 87 91 93 99 102 112 116 124 128 126 118 109 105 106 103 111 118 106 96 102 103 103 106 108 107
22 23 22 24 21 22 23 21 24 24 26 29 32 32 32 31 36 57 82 86 87 89 92 94 98 103 108 116 124 130 130 125 126 125 122 126 109 97 97 93 107 105 102 108 113
21 20 20 20 20 20 21 21 21 23 24 26 26 31 36 38 38 38 44 64 85 90 90 93 96 99 103 108 112 121 123 131 130 135 135 136 121 115 113 104 95 94 92 98 98
18 18 18 18 19 19 20 19 20 18 20 22 25 26 31 36 42 43 44 47 51 66 83 91 94 97 101 103 108 113 116 116 121 127 138 141 137 127 123 122 120 111 101 94 90
20 17 16 17 18 19 19 20 19 20 21 20 22 23 27 31 34 38 46 50 53 56 62 73 88 97 99 103 107 110 113 115 118 120 121 127 132 129 127 129 130 123 122 116 107
20 18 16 14 16 19 19 18 20 21 22 24 26 26 27 28 32 36 40 44 49 55 61 66 72 79 89 100 107 109 111 113 117 121 121 125 125 120 120 121 123 126 127 128 124
18 19 19 17 16 18 19 19 20 21 24 25 25 25 29 31 34 38 42 46 51 54 58 64 69 74 79 87 100 103 113 116 118 120 121 126 118 120 115 114 116 117 122 124 130
18 18 21 22 20 19 20 21 23 24 25 29 33 33 34 36 38 40 44 48 52 55 58 63 68 73 77 84 92 95 108 113 119 122 122 121 124 114 117 114 114 116 117 117 117
29 21 20 23 24 24 25 25 26 28 28 30 32 37 39 41 45 48 50 53 56 57 59 63 69 74 75 78 87 92 99 104 111 117 121 117 126 117 118 115 115 115 116 115 113
51 37 27 26 29 30 30 31 32 33 34 35 39 40 42 43 45 48 50 54 56 58 63 66 71 79 75 80 86 92 98 99 104 107 108 111 122 112 111 115 115 115 114 116 116
66 57 50 43 35 31 33 35 38 39 40 42 43 47 49 50 53 55 56 60 61 65 68 70 72 85 83 85 87 90 90 90 95 96 99 104 109 101 103 107 112 114 114 118 120
72 68 64 62 57 47 37 33 37 43 45 48 50 52 55 59 59 60 63 66 63 63 67 70 70 81 85 82 82 82 80 82 83 84 88 90 94 88 93 99 98 103 108 114 120
72 72 72 71 69 66 58 49 39 35 37 43 49 55 58 61 61 62 60 58 56 55 55 59 57 67 70 72 68 62 69 72 72 71 74 79 82 77 74 73 83 89 95 103 113
73 72 69 68 70 72 72 70 61 50 44 39 38 40 43 47 47 48 48 49 48 47 48 50 51 52 52 54 54 52 56 57 59 61 65 69 68 64 62 60 72 78 87 96 100
76 73 72 71 70 72 74 72 71 65 57 50 45 38 38 39 39 38 40 41 41 40 43 47 47 43 41 40 42 43 44 42 43 48 52 52 56 51 54 55 61 71 78 80 84
74 77 76 74 72 72 75 77 76 73 67 60 52 45 38 34 31 33 34 35 36 37 41 44 38 34 32 32 33 36 38 36 42 46 43 38 48 34 46 47 46 53 61 68 66
79 77 76 76 75 75 76 79 78 80 73 64 57 51 42 34 30 31 31 31 32 36 38 36 31 27 25 23 24 27 30 33 36 37 38 38 38 37 37 37 36 44 50 54 59
79 79 80 81 80 79 80 80 81 80 79 70 63 55 47 39 32 29 31 30 30 34 35 32 28 19 17 18 18 19 27 31 30 30 33 35 31 31 35 33 38 43 49 56 58
79 79 81 82 82 82 83 82 82 83 81 76 67 60 51 42 33 30 29 27 30 33 33 28 22 17 13 16 12 13 19 23 24 25 26 30 29 32 34 35 39 40 49 55 52
81 80 82 81 85 85 84 85 84 86 84 81 71 63 54 44 34 32 26 26 29 30 29 23 19 14 13 14 12 14 17 20 20 22 19 24 28 33 37 41 41 46 36 32 29

GFSSW_250_spd_060.txt.gz
Wind_Speed
49 51 53 54 53 53 51 51 49 49 48 47 49 52 55 77 95 99 103 104 108 113 114 112 113 108 101 102 93 90 78 84 79 84 87 93 80 80 77 76 74 76 73 69 66
44 46 48 49 46 45 44 43 43 41 40 39 37 41 45 68 92 101 102 102 106 109 115 111 111 113 104 105 103 93 84 88 91 91 92 88 88 86 82 83 81 80 71 75 67
39 39 39 38 37 37 39 40 40 38 35 34 30 31 39 60 84 99 98 101 104 107 114 112 106 108 112 111 106 104 94 91 94 96 96 92 92 92 92 85 82 83 75 75 73
34 34 33 34 34 37 37 39 38 34 33 31 26 24 34 50 73 93 97 98 103 103 112 115 114 109 102 107 112 102 95 88 96 96 91 90 94 99 91 89 94 82 80 81 80
30 32 31 30 31 31 29 29 30 31 31 27 24 21 24 44 64 82 94 95 99 101 109 115 116 114 113 111 104 106 107 95 88 95 96 97 98 97 98 94 95 95 90 88 90
27 27 29 30 28 27 25 23 26 27 28 27 24 21 21 32 51 70 90 94 95 99 102 111 113 114 115 113 111 111 112 111 105 98 91 99 98 100 95 102 105 99 93 93 91
20 24 25 26 26 26 25 22 21 25 25 28 26 23 23 19 37 58 79 92 92 95 98 103 109 112 112 117 116 107 108 114 111 116 115 101 96 93 97 101 99 96 104 104 104
22 20 24 25 23 22 22 22 21 21 23 26 29 26 27 24 25 40 63 82 91 92 94 97 100 108 111 109 119 119 113 103 118 103 116 121 94 96 99 100 94 91 93 90 92
25 20 18 21 20 18 18 18 18 21 22 25 26 31 31 30 31 29 41 65 84 91 90 92 97 100 104 108 112 122 120 122 109 124 108 111 102 102 93 94 93 94 99 103 94
25 21 17 18 18 17 16 18 15 18 19 24 26 29 33 35 33 34 35 42 67 84 90 89 93 98 102 106 108 117 120 126 131 121 118 107 103 105 112 108 104 98 92 90 97
16 19 17 17 17 18 17 16 14 15 17 20 21 26 30 32 35 37 39 40 45 65 82 90 91 95 97 102 107 108 119 122 134 133 132 125 112 108 107 111 111 110 114 112 94
9 15 17 17 18 19 19 18 17 15 16 19 22 22 27 29 32 37 40 44 46 49 59 76 91 93 96 100 104 108 111 119 123 131 138 139 127 122 118 115 116 113 111 114 107
22 13 15 18 18 19 20 20 20 19 19 19 20 23 27 29 30 33 39 43 46 50 53 58 69 86 95 100 102 106 110 115 119 123 127 139 135 132 131 129 126 120 117 116 113
55 33 19 19 21 22 21 21 22 22 23 24 23 25 25 28 32 35 40 41 45 48 53 59 63 70 80 91 102 108 111 112 115 120 122 126 127 135 137 137 139 134 135 132 128
73 65 51 34 22 22 25 27 27 25 25 29 27 31 32 33 35 35 39 43 46 50 53 59 63 68 72 77 87 100 110 116 116 117 122 122 128 121 126 131 135 142 146 140 138
78 72 68 63 56 44 30 23 26 29 31 32 36 36 37 37 39 41 44 49 51 51 54 60 63 66 71 74 80 87 92 99 111 118 121 122 130 116 123 124 127 132 134 136 135
79 77 72 68 66 64 58 50 37 25 23 31 39 43 45 44 48 48 49 51 51 52 57 61 66 71 74 77 82 88 93 94 99 105 111 120 125 117 120 128 130 129 131 130 129
79 79 76 73 70 69 66 64 59 48 33 25 25 33 41 48 54 56 57 57 56 58 62 65 70 77 79 83 83 86 96 95 98 100 103 108 104 108 116 124 125 125 127 130 129
78 77 77 77 74 72 71 68 70 65 56 41 30 28 32 35 42 46 54 56 58 63 67 70 72 83 85 86 84 88 91 94 91 91 96 98 99 96 102 103 108 113 120 124 125
76 77 77 78 78 75 75 73 71 70 68 60 46 38 35 35 34 36 44 43 46 54 56 57 57 73 74 74 79 82 84 86 82 78 81 82 88 89 91 92 98 104 108 109 109
78 75 77 78 80 78 77 76 75 76 76 71 63 51 42 36 34 35 35 37 37 43 44 48 48 57 57 57 64 67 70 72 69 69 69 71 71 78 80 80 82 89 92 96 99
76 77 75 77 78 79 78 80 76 76 77 80 73 63 52 45 40 32 31 29 33 34 38 39 37 46 48 50 54 55 56 57 56 60 60 61 66 66 61 62 65 68 72 75 85
75 77 78 78 79 81 79 83 80 79 77 79 81 73 63 52 42 39 31 27 30 30 32 34 34 40 47 42 41 43 43 42 43 49 52 45 50 48 48 52 54 55 53 61 74
75 76 77 78 79 80 81 83 83 83 83 82 83 79 69 60 49 37 33 27 28 29 27 32 33 37 36 34 36 35 34 35 35 39 40 35 34 34 40 42 40 40 48 54 63
75 76 78 80 82 82 83 83 85 87 86 85 88 84 73 62 56 42 32 28 25 25 26 30 31 30 30 30 33 32 30 28 28 29 27 29 29 28 33 34 31 33 40 46 54
78 78 75 78 81 84 84 86 86 91 89 87 90 90 77 66 54 46 34 26 23 20 25 30 30 26 24 26 26 26 23 23 22 21 19 19 21 28 25 27 27 36 40 45 43
78 81 80 76 79 83 85 87 90 91 94 94 91 92 82 68 55 43 33 26 22 22 23 27 26 22 20 22 21 17 20 17 13 14 14 16 18 25 22 24 28 36 41 39 34

GFSSW_250_spd_063.txt.gz
Wind_Speed
47 51 55 58 60 60 60 60 60 62 65 68 72 74 76 79 82 83 85 82 93 102 106 111 115 110 103 99 105 97 93 89 88 89 89 86 81 79 76 79 76 69 66 65 63
43 44 46 48 51 53 54 55 57 58 59 61 62 64 67 71 76 80 81 82 88 99 106 111 117 112 113 106 99 94 87 90 92 93 93 83 87 85 86 83 81 78 73 67 66
40 39 41 43 44 45 46 48 49 50 52 52 52 54 56 59 64 69 73 79 84 93 106 110 116 116 116 115 108 105 102 91 92 98 98 89 94 93 91 91 81 83 78 80 74
39 38 37 38 39 40 39 40 42 44 47 48 47 47 48 47 50 56 61 69 82 93 105 111 111 114 121 118 116 112 92 105 100 97 96 93 94 95 93 91 94 87 80 83 82
34 36 35 34 33 34 34 36 37 38 39 39 40 41 42 41 37 43 50 60 76 94 106 112 112 113 118 121 119 117 108 105 108 103 106 104 100 103 93 100 100 94 89 86 84
32 30 32 31 30 30 32 34 33 34 33 34 34 36 38 36 31 32 41 49 65 89 107 111 111 112 117 120 120 120 121 110 100 112 108 114 108 103 89 94 105 98 95 94 92
33 28 25 26 27 26 27 28 31 29 29 28 31 31 34 34 31 25 31 44 56 77 100 106 109 111 112 118 119 117 117 124 113 105 104 109 109 95 99 98 99 102 98 98 94
30 29 25 23 23 24 25 25 26 25 26 25 28 29 32 33 31 25 23 35 49 67 86 99 104 106 109 111 114 117 118 121 126 121 111 112 91 100 106 101 96 102 104 105 100
20 25 24 23 23 21 23 22 22 23 24 24 24 28 28 32 31 30 27 27 39 54 75 93 100 101 105 107 112 114 116 118 117 116 125 116 100 110 100 103 103 96 100 101 100
5 15 22 23 22 22 23 21 22 23 22 22 23 25 28 28 30 35 33 31 32 44 64 83 96 102 103 104 107 109 111 115 121 123 120 123 113 105 113 108 107 106 99 99 97
25 11 14 20 21 23 22 22 21 24 22 22 21 25 26 29 29 34 38 36 35 38 51 71 90 100 101 102 106 109 112 113 122 127 124 120 116 103 108 109 105 96 104 102 101
63 44 24 17 20 24 25 24 22 23 24 25 22 25 27 27 29 33 35 38 40 40 44 55 76 94 100 100 101 106 110 113 117 123 128 131 122 124 114 120 111 113 100 98 101
73 66 58 47 32 23 26 28 28 26 24 25 27 26 26 28 32 34 35 37 40 45 47 48 55 71 92 104 103 104 108 113 116 122 126 128 128 126 129 116 120 116 115 117 106
75 73 70 64 56 50 42 28 25 30 29 30 30 29 29 30 31 36 38 39 41 44 48 53 56 59 66 83 101 106 106 110 112 120 121 128 124 123 130 136 130 121 122 123 116
73 73 74 71 69 64 59 53 41 28 23 31 36 36 33 34 36 39 40 40 42 46 49 52 57 61 66 70 82 99 108 110 110 116 119 121 126 113 125 135 135 138 137 125 126
73 72 71 72 69 70 67 64 58 53 42 28 24 30 38 42 44 44 47 48 48 49 50 56 57 61 64 68 72 79 90 105 114 116 115 122 127 114 120 124 138 145 143 141 138
72 72 72 71 72 69 71 71 69 61 58 51 38 26 27 32 43 51 54 55 56 56 58 62 63 65 66 67 71 76 83 88 97 110 118 123 126 115 121 130 131 133 140 146 148
70 71 72 72 72 73 72 73 74 75 67 64 56 44 32 26 29 37 47 59 64 65 66 69 68 70 71 73 76 80 84 89 93 98 104 113 123 121 122 125 131 133 133 135 137
68 69 71 71 72 73 73 74 75 77 77 72 68 63 49 34 28 29 33 42 51 64 74 75 75 79 77 78 79 83 86 91 95 99 101 101 106 109 115 125 130 127 129 132 134
71 70 69 70 71 73 75 77 77 77 80 78 74 71 68 55 39 34 30 28 37 48 60 67 70 82 83 81 83 85 86 90 93 90 90 88 91 96 99 105 111 115 123 130 131
69 71 71 71 72 73 76 78 79 79 81 83 81 76 75 68 57 45 37 31 28 36 45 50 55 70 71 72 74 76 77 79 82 80 74 72 75 84 90 95 99 101 105 109 111
70 68 71 73 70 72 74 78 81 82 83 85 85 82 78 75 65 51 43 36 31 30 36 37 42 52 57 53 56 60 60 60 61 63 62 56 63 68 75 80 86 92 95 96 99
71 72 71 72 73 73 73 75 79 82 84 84 88 88 85 82 68 58 44 39 30 30 28 31 35 41 45 41 44 49 49 50 52 50 52 47 51 56 54 58 67 72 78 83 90
69 73 72 72 73 73 75 78 79 82 85 86 91 93 90 85 74 57 47 37 29 27 28 29 31 31 40 35 42 42 37 40 43 39 38 41 41 43 47 52 55 60 63 68 71
68 75 77 75 75 73 74 78 80 85 89 89 93 97 98 90 75 61 48 36 29 23 26 25 28 26 35 34 40 36 34 29 29 32 29 34 31 36 39 42 48 50 51 51 53
70 72 77 78 77 78 77 79 80 84 86 88 92 98 102 97 76 60 51 36 28 21 22 22 24 25 33 31 32 31 27 25 24 24 26 28 22 29 34 37 40 40 43 41 43
71 73 79 79 80 80 79 81 81 82 90 90 92 96 101 98 78 62 47 36 26 19 19 19 19 23 32 26 23 24 22 24 21 19 22 21 20 28 30 32 31 36 34 33 37

GFSSW_250_spd_069.txt.gz
Wind_Speed
60 60 60 61 60 61 62 63 64 65 66 67 68 68 68 68 70 71 70 72 73 75 77 80 85 89 94 101 101 103 101 93 95 94 92 94 92 85 85 82 81 84 81 78 74
55 56 57 56 57 59 61 62 63 64 65 67 68 69 70 71 73 74 75 76 76 77 78 80 81 85 90 93 98 102 102 97 102 102 95 96 93 92 90 88 85 84 83 85 80
50 51 50 51 52 54 56 58 61 63 65 67 68 69 70 72 73 76 77 78 80 81 83 83 84 84 85 91 95 97 101 103 105 107 98 97 99 99 96 96 91 92 88 86 86
37 42 43 43 45 47 50 52 53 54 59 63 67 70 71 73 74 76 77 79 81 83 86 88 87 86 87 87 90 93 97 107 104 109 109 104 104 102 101 102 99 97 96 91 82
17 28 33 34 36 38 41 43 44 45 49 52 56 58 61 65 69 72 76 79 82 83 85 88 90 91 91 91 89 89 92 99 108 109 112 111 103 108 106 109 109 101 99 97 88
7 8 19 24 26 28 29 32 35 39 42 45 47 49 52 57 60 60 62 66 71 77 83 88 91 91 92 93 93 92 89 94 100 110 114 115 102 104 102 108 110 107 102 101 94
35 21 11 16 19 21 21 21 22 26 31 36 39 43 46 49 52 56 56 57 61 64 68 75 81 86 90 93 94 95 94 92 97 108 115 118 106 105 109 110 112 107 103 101 92
69 51 34 24 19 17 18 20 20 23 25 28 35 38 40 42 44 48 49 48 51 56 58 62 65 69 76 83 90 95 94 95 96 103 113 120 113 119 106 106 108 112 108 100 100
66 65 64 62 55 41 27 19 19 24 26 27 28 31 32 34 36 38 41 43 44 46 49 52 54 55 58 63 71 83 92 96 97 99 109 117 120 119 121 115 107 108 113 108 108
62 61 61 59 58 58 58 53 40 23 19 26 29 28 29 30 33 33 34 41 42 43 44 47 47 45 46 53 63 73 82 94 100 102 103 113 118 120 117 115 112 109 110 113 111
63 59 57 56 57 58 58 58 57 55 52 36 22 28 31 30 31 33 33 34 38 39 41 44 45 42 40 43 51 63 77 85 97 103 105 110 117 118 121 122 126 118 111 107 111
64 61 60 58 58 56 57 58 58 57 56 55 55 43 25 30 34 33 34 35 35 38 39 42 44 44 42 39 43 51 63 81 93 101 107 110 115 117 120 123 123 123 119 111 108
65 64 63 62 61 57 55 56 57 58 57 57 57 56 54 38 23 30 37 37 38 38 40 41 42 44 46 46 45 50 57 69 84 95 103 109 112 117 120 124 128 123 125 119 107
65 65 63 65 64 63 58 57 54 56 56 56 56 57 57 56 51 34 25 36 43 43 45 44 45 46 47 49 50 49 51 58 68 81 95 103 107 116 120 122 127 134 132 128 126
61 64 63 65 64 64 64 61 60 55 55 57 56 57 58 58 59 54 40 28 31 43 51 50 51 52 53 52 53 54 54 53 62 70 80 92 102 99 117 124 126 128 135 137 135
59 59 62 62 65 63 64 63 62 56 55 57 59 59 58 61 61 63 60 49 31 33 42 52 57 58 58 58 58 57 59 61 59 65 71 82 94 90 104 122 125 127 129 138 141
59 60 60 60 63 65 64 65 64 60 57 55 58 60 62 61 62 63 65 62 52 38 35 42 51 59 65 64 64 64 63 64 66 65 66 75 82 88 102 110 122 127 128 129 137
59 61 61 60 61 63 64 66 66 65 61 60 56 59 61 62 64 65 67 66 63 50 39 41 44 52 58 64 70 68 69 71 68 68 71 70 72 87 97 106 114 123 129 132 133
58 62 61 60 61 63 63 65 67 65 66 65 62 59 62 64 65 67 69 71 73 57 44 39 44 49 53 56 61 69 75 76 73 72 73 72 73 79 89 103 114 120 125 128 133
58 60 64 61 61 63 62 64 66 66 65 66 68 64 64 68 70 70 73 74 77 64 47 39 36 46 53 54 53 55 65 78 80 75 75 74 76 81 87 92 104 120 127 129 130
55 59 61 64 61 62 64 65 65 68 66 68 71 69 63 69 73 74 77 78 79 69 48 41 40 40 48 52 48 48 54 66 72 78 81 77 79 84 89 93 95 104 119 127 131
55 57 59 64 63 64 65 67 70 70 66 65 70 71 68 69 72 77 79 82 83 70 49 45 41 42 44 42 41 42 49 54 59 66 72 80 80 90 92 93 90 93 102 114 128
56 57 60 63 65 66 68 70 72 75 72 67 70 72 73 71 73 76 78 83 86 74 50 47 42 37 38 34 32 35 39 44 49 52 59 63 73 86 92 91 91 94 98 102 106
56 56 60 62 66 68 70 73 74 74 73 70 70 72 74 73 75 77 78 83 87 74 53 49 42 34 32 27 26 31 32 32 35 41 50 52 60 72 77 79 82 86 89 94 101
58 57 58 61 64 66 71 75 77 78 74 72 68 72 74 74 75 80 82 86 91 71 52 47 39 28 26 23 23 26 28 31 33 42 38 53 50 64 60 62 67 67 66 73 76
57 58 61 63 63 68 69 74 75 82 78 76 71 74 74 74 75 78 80 86 89 72 51 45 35 29 24 19 17 23 30 29 27 37 36 46 53 53 53 56 56 54 55 56 57
59 59 62 65 64 68 71 75 75 81 85 77 73 74 76 77 77 80 82 86 85 67 50 44 31 26 17 16 18 27 24 22 28 36 39 42 46 43 45 45 44 41 44 45 42

GFSSW_250_spd_072.txt.gz
Wind_Speed
54 55 60 61 61 60 59 59 59 60 60 60 61 62 62 63 65 67 68 70 70 73 75 77 80 83 88 93 96 101 95 93 93 95 97 94 92 90 88 86 87 83 80 78 78
48 49 50 55 57 59 59 60 61 61 61 62 63 64 66 67 69 69 69 70 71 73 74 76 78 81 84 87 91 98 101 97 99 100 101 98 98 97 93 93 91 87 85 84 86
36 41 42 43 47 52 55 58 58 59 60 62 64 66 68 70 71 72 72 73 73 74 76 77 78 80 82 85 88 91 93 101 102 104 106 106 103 102 98 98 98 94 88 87 89
14 28 31 32 36 39 45 50 52 56 58 60 63 65 68 70 71 73 75 76 77 78 78 79 80 81 83 84 87 88 91 95 101 106 112 106 110 103 103 104 105 100 96 91 88
17 0 13 21 27 30 35 38 43 48 52 56 58 61 64 66 68 71 74 75 77 79 81 83 84 86 87 87 87 88 89 91 95 105 110 112 110 116 106 109 113 105 100 98 94
39 26 14 5 11 19 23 27 32 37 41 46 50 54 57 60 62 64 67 70 75 78 81 82 84 87 90 92 91 88 90 89 92 97 103 111 117 117 111 117 112 108 105 102 98
60 57 50 36 20 10 9 15 21 27 30 36 40 44 49 52 56 58 59 61 65 69 72 77 83 89 90 91 93 93 93 92 93 96 98 105 114 119 122 112 111 115 107 107 103
60 55 53 50 47 45 38 25 12 21 29 33 35 37 41 45 49 52 56 58 60 63 66 69 72 76 81 87 94 94 94 97 97 94 99 101 105 117 116 115 113 115 120 114 107
64 62 58 52 48 48 46 41 42 36 22 13 26 35 39 41 42 45 50 54 57 58 61 64 66 68 71 75 80 86 94 95 96 100 101 102 103 110 109 114 117 116 119 117 114
61 61 60 59 58 53 47 45 44 42 41 40 34 17 16 28 37 39 43 45 48 52 52 54 57 59 61 65 69 71 79 86 97 98 102 105 104 104 108 108 120 118 114 113 116
58 58 58 57 57 56 52 50 44 44 43 41 41 40 41 32 17 25 38 41 43 44 46 49 52 54 55 58 60 62 66 71 80 92 102 105 106 106 104 107 114 121 119 113 116
57 55 55 57 55 56 53 52 52 49 44 44 44 42 41 39 41 38 22 24 38 43 45 46 46 48 52 53 56 59 60 64 69 76 85 99 105 107 109 107 109 113 118 119 119
59 59 54 53 55 54 54 54 52 51 52 47 45 45 46 43 41 41 40 38 27 28 42 47 47 47 48 52 55 56 57 56 57 67 77 87 96 108 109 111 110 111 112 117 119
55 54 58 55 53 55 54 52 51 52 52 53 49 45 47 48 48 45 46 45 44 42 27 35 47 52 51 51 53 55 55 57 53 57 68 77 88 99 108 114 112 115 113 115 120
52 54 51 55 57 56 57 57 52 49 50 53 53 54 47 47 48 50 47 48 49 50 50 32 32 44 55 57 56 56 56 57 58 56 60 67 79 91 102 112 117 117 118 116 118
48 50 53 53 51 57 58 60 60 52 49 50 52 54 55 51 50 51 52 51 51 53 55 53 35 35 44 52 61 61 60 60 61 61 57 62 70 77 92 107 115 119 120 119 120
46 47 49 53 52 54 58 60 62 61 54 49 51 55 56 57 54 53 56 56 56 57 59 62 50 38 39 45 53 61 66 64 63 65 65 61 66 70 79 97 108 115 121 122 122
50 46 48 49 52 53 56 60 62 63 63 56 52 53 57 56 57 54 57 59 60 61 64 67 64 46 44 40 46 53 60 67 70 70 70 65 66 71 78 86 97 108 116 121 120
51 50 47 49 51 53 55 59 64 64 66 62 58 54 55 58 59 57 59 59 62 64 67 69 67 55 48 43 42 46 53 60 66 75 73 71 71 76 77 82 87 97 106 113 114
51 53 52 49 50 54 56 58 61 65 65 69 69 61 58 58 60 60 62 60 64 66 69 73 69 57 48 46 46 46 44 55 63 66 73 75 77 83 80 83 83 89 94 102 110
52 53 53 52 52 54 56 60 62 64 66 69 74 67 65 61 62 64 66 63 67 68 72 77 70 58 43 45 43 42 45 46 56 59 64 71 82 80 84 86 82 81 85 93 102
53 52 54 53 53 54 55 59 62 64 66 69 72 74 69 67 64 66 70 68 69 72 75 79 68 53 45 44 39 37 39 44 45 51 58 64 73 82 92 86 85 83 83 87 93
56 55 55 55 55 56 56 60 62 65 68 69 73 77 74 69 66 67 71 69 73 75 79 82 67 49 45 42 37 35 37 41 43 46 46 57 65 74 86 89 88 87 85 88 90
57 55 56 57 58 59 59 62 64 67 69 71 74 78 79 72 71 71 72 69 72 74 79 81 65 50 47 39 32 34 35 33 36 38 45 42 58 68 73 75 83 86 87 87 89
55 58 55 57 56 56 59 62 64 69 71 72 76 79 80 76 74 76 74 72 76 77 80 77 59 48 38 28 26 27 27 26 29 35 35 48 44 57 60 62 69 72 78 79 83
54 57 58 56 58 59 60 62 67 68 71 73 78 78 79 78 76 79 74 72 74 79 82 73 54 43 32 27 24 22 19 19 21 24 26 33 36 52 42 50 55 60 63 66 69
54 56 57 59 59 62 61 63 66 70 73 74 78 80 82 79 80 80 75 72 74 78 82 68 49 38 29 24 21 16 12 13 15 20 25 29 39 41 40 44 44 50 51 54 57

GFSSW_250_spd_075.txt.gz
Wind_Speed
48 53 55 56 55 55 55 56 57 58 59 59 60 60 61 62 64 66 68 72 74 77 79 82 86 89 92 97 99 104 101 96 96 94 99 100 94 95 89 88 92 81 81 74 75
30 41 43 46 49 50 52 53 54 55 57 59 61 62 63 65 66 67 68 69 70 73 75 78 81 85 89 92 96 100 101 100 100 98 99 105 101 100 97 94 91 92 91 84 81
9 22 30 32 35 41 46 50 52 55 56 58 60 62 63 65 65 66 68 69 70 71 73 74 77 80 82 85 90 93 94 99 102 103 100 100 101 102 103 101 98 94 95 89 89
18 1 10 18 23 28 33 41 47 51 55 58 61 63 65 67 67 69 69 70 71 72 73 74 77 78 79 81 85 86 89 95 101 104 105 105 105 106 108 106 107 100 96 92 94
42 26 13 3 8 16 23 30 35 41 48 54 58 62 66 67 68 71 72 73 74 75 76 77 78 78 79 81 83 84 88 91 93 96 104 108 108 110 106 107 108 105 104 97 98
56 50 45 34 20 10 12 20 28 36 41 45 50 56 61 64 67 70 72 74 76 77 79 81 81 83 83 83 84 86 87 89 92 92 99 104 111 115 110 112 108 103 107 109 106
59 54 48 43 39 36 32 22 12 16 25 34 41 48 52 56 60 65 68 70 74 77 79 81 83 85 84 88 87 90 89 91 91 93 96 101 102 107 115 123 114 108 110 116 111
60 56 49 50 46 38 35 32 31 30 23 14 20 29 35 39 44 49 55 61 66 69 72 76 80 83 85 88 89 92 93 96 97 97 96 100 94 102 112 117 117 111 118 117 117
61 58 57 54 49 43 44 40 34 31 30 28 27 22 15 21 34 42 46 48 53 59 62 66 71 74 77 82 87 91 95 96 99 98 100 103 97 102 108 107 112 116 120 120 123
55 56 56 59 56 51 46 43 42 42 37 32 29 28 26 24 20 16 25 39 46 49 54 60 62 66 70 74 77 85 85 92 100 104 101 105 104 106 108 103 106 110 116 119 121
50 50 51 52 54 57 55 49 44 42 42 39 38 33 29 28 27 25 23 18 17 31 46 51 54 58 63 67 72 77 81 83 90 94 100 103 105 108 111 103 106 108 111 117 123
48 46 44 47 50 50 52 54 53 47 41 41 41 39 39 34 30 29 28 26 22 19 19 25 44 52 55 60 63 68 73 77 80 84 85 92 98 108 110 109 111 109 111 114 118
48 46 45 43 46 47 51 51 51 51 51 42 43 41 41 40 39 34 32 32 30 28 26 26 22 27 45 58 61 65 66 71 74 75 74 81 87 95 104 111 110 112 113 113 114
46 45 46 44 43 44 46 48 50 50 51 52 46 44 42 41 43 40 38 37 37 36 34 33 33 32 30 37 55 65 67 67 68 72 70 76 74 80 89 98 110 114 114 116 112
44 45 46 49 45 44 45 47 50 49 50 52 54 54 48 44 43 44 42 42 42 42 42 39 40 42 44 38 37 50 66 69 70 69 70 71 75 71 80 86 96 108 115 116 115
49 45 46 48 49 46 46 46 47 50 50 51 53 56 55 51 47 45 44 45 45 46 45 48 45 45 49 50 43 42 51 64 74 73 71 68 75 70 76 82 86 95 105 114 114
46 49 47 47 48 48 48 47 47 49 50 51 52 56 59 57 54 49 49 47 47 48 49 50 52 54 54 59 50 44 47 53 64 73 74 73 74 71 80 75 79 86 94 103 112
45 46 47 50 50 49 51 48 49 50 51 51 54 58 60 62 60 54 53 52 51 53 51 53 56 63 62 60 59 45 44 49 55 63 69 81 75 74 78 78 73 80 86 93 104
45 46 47 48 51 50 50 53 50 51 53 54 56 59 62 62 64 58 56 54 56 57 55 55 58 65 68 67 57 49 41 43 49 51 61 69 74 77 76 83 76 76 81 86 94
44 46 48 49 50 52 50 51 52 53 55 56 57 61 63 64 65 63 59 57 58 61 60 59 59 68 73 69 61 48 40 41 43 48 55 54 67 76 85 82 82 77 76 82 87
45 45 47 50 51 53 52 50 52 56 57 58 60 62 64 66 67 68 64 61 61 63 61 59 65 68 74 72 53 44 40 44 46 47 54 57 58 72 78 84 85 78 79 78 83
47 46 46 47 50 53 53 52 54 59 57 59 64 63 66 68 70 70 68 65 68 67 62 66 68 71 76 65 50 43 45 42 45 46 50 55 55 64 70 76 83 82 84 82 81
47 47 49 50 50 51 53 55 56 60 60 60 64 63 66 71 70 71 68 69 70 74 68 69 73 75 77 61 47 42 42 40 39 42 43 49 48 63 68 72 75 78 85 84 84
48 49 50 52 51 53 54 56 60 62 63 62 66 65 67 72 75 70 70 71 72 73 65 67 73 78 70 53 45 42 37 32 32 34 41 38 46 58 66 70 76 71 74 81 84
52 53 54 54 53 55 55 57 60 62 65 61 66 66 70 71 75 74 72 74 76 77 69 70 74 78 61 46 39 34 28 22 21 28 29 38 38 49 59 66 61 62 67 69 74
55 58 59 59 59 57 57 59 60 62 65 64 64 68 70 73 77 75 75 78 78 77 71 73 76 74 56 42 36 28 24 23 20 21 22 24 29 43 48 50 50 56 61 62 64
56 57 60 59 59 58 58 58 62 62 68 67 66 70 73 75 78 76 77 79 78 76 71 74 77 68 51 39 34 26 23 23 23 22 21 23 32 35 36 38 43 45 52 55 56